GW1288 Weather Reports


Display with metric or nautical units.
time (UTC)temp
F
wind
direction
speed
MPH
gust
MPH
rain 1hr
in
rain 24hr
in
rain mn
in
humidity
%
barometer
mb
20240304122147 67 56 5.0 6.0 0.00 0.00 0.00 97 1012.5
20240304121647 67 82 3.0 3.0 0.00 0.00 0.00 97 1012.6
20240304121145 67 68 3.0 6.0 0.00 0.00 0.00 97 1012.6
20240304120644 67 42 1.0 2.0 0.00 0.00 0.00 97 1012.6
20240304120143 67 54 3.0 3.0 0.00 0.00 0.00 97 1012.5
20240304115642 67 61 5.0 6.0 0.00 0.00 0.00 97 1012.6
20240304115142 67 52 5.0 7.0 0.00 0.00 0.00 97 1012.6
20240304114640 67 67 2.0 2.0 0.00 0.00 0.00 97 1012.3
20240304114138 67 40 3.0 3.0 0.00 0.00 0.00 97 1012.5
20240304113636 67 144 1.0 1.0 0.00 0.00 0.00 97 1012.3
20240304113134 67 66 3.0 3.0 0.00 0.00 0.00 97 1012.4
20240304112633 67 72 3.0 3.0 0.00 0.00 0.00 97 1012.3
20240304112134 67 125 1.0 2.0 0.00 0.00 0.00 97 1012.2
20240304111633 67 73 1.0 1.0 0.00 0.00 0.00 97 1012.0
20240304111133 67 62 3.0 5.0 0.00 0.00 0.00 97 1012.1
20240304110632 67 93 3.0 3.0 0.00 0.00 0.00 97 1012.3
20240304110131 67 101 2.0 2.0 0.00 0.00 0.00 97 1012.3
20240304105631 67 95 1.0 2.0 0.00 0.00 0.00 97 1012.2
20240304105130 67 85 2.0 2.0 0.00 0.00 0.00 97 1011.9
20240304104629 67 71 1.0 2.0 0.00 0.00 0.00 97 1012.0
20240304104128 67 92 3.0 3.0 0.00 0.00 0.00 97 1011.9
20240304103626 67 148 2.0 3.0 0.00 0.00 0.00 97 1012.1
20240304103125 67 47 3.0 6.0 0.00 0.00 0.00 97 1012.2
20240304102625 67 63 4.0 6.0 0.00 0.00 0.00 97 1012.0
20240304102123 67 66 6.0 8.0 0.00 0.00 0.00 97 1011.7
20240304101622 67 52 6.0 7.0 0.00 0.00 0.00 97 1011.9
20240304101120 67 50 3.0 6.0 0.00 0.00 0.00 96 1011.7
20240304100620 67 61 6.0 8.0 0.00 0.00 0.00 96 1011.9
20240304100120 67 101 4.0 6.0 0.00 0.00 0.00 96 1012.0
20240304095619 67 68 5.0 8.0 0.00 0.00 0.00 96 1011.7
20240304095119 67 75 1.0 2.0 0.00 0.00 0.00 96 1011.9
20240304094617 67 59 3.0 6.0 0.00 0.00 0.00 96 1011.7
20240304094117 67 100 3.0 5.0 0.00 0.00 0.00 96 1011.7
20240304093615 67 51 5.0 6.0 0.00 0.00 0.00 96 1011.5
20240304093114 67 55 3.0 5.0 0.00 0.00 0.00 96 1011.6
20240304092613 67 29 3.0 6.0 0.00 0.00 0.00 96 1011.6
20240304092112 67 59 2.0 3.0 0.00 0.00 0.00 96 1011.5
20240304091611 67 57 5.0 8.0 0.00 0.00 0.00 96 1011.7
20240304091110 67 74 6.0 7.0 0.00 0.00 0.00 96 1011.6
20240304090610 67 56 5.0 6.0 0.00 0.00 0.00 96 1011.9
20240304090110 67 85 3.0 5.0 0.00 0.00 0.00 96 1011.7
20240304085609 67 50 3.0 5.0 0.00 0.00 0.00 96 1011.9
20240304085109 67 74 4.0 6.0 0.00 0.00 0.00 96 1011.7
20240304084608 67 60 5.0 8.0 0.00 0.00 0.00 96 1011.9
20240304084106 67 22 5.0 6.0 0.00 0.00 0.00 96 1011.9
20240304083605 67 22 3.0 5.0 0.00 0.00 0.00 96 1012.1
20240304083104 67 91 4.0 5.0 0.00 0.00 0.00 96 1012.3
20240304082602 67 91 3.0 7.0 0.00 0.00 0.00 96 1012.1
20240304082100 67 80 2.0 2.0 0.00 0.00 0.00 96 1011.7
20240304081600 67 63 3.0 6.0 0.00 0.00 0.00 96 1012.4
20240304081059 67 80 2.0 5.0 0.00 0.00 0.00 96 1012.3
20240304080557 67 85 1.0 2.0 0.00 0.00 0.00 96 1012.3
20240304080056 67 52 6.0 7.0 0.00 0.00 0.00 96 1012.1
20240304075555 67 95 5.0 7.0 0.00 0.00 0.00 96 1012.1
20240304075054 67 37 5.0 8.0 0.00 0.00 0.00 96 1012.4
20240304074554 68 51 4.0 6.0 0.00 0.00 0.00 96 1012.5
20240304074052 68 34 5.0 6.0 0.00 0.00 0.00 96 1012.4
20240304073550 68 166 5.0 7.0 0.00 0.00 0.00 96 1012.3
20240304073048 68 33 5.0 7.0 0.00 0.00 0.00 96 1012.5
20240304072548 68 61 4.0 6.0 0.00 0.00 0.00 95 1012.4
20240304072047 68 58 6.0 7.0 0.00 0.00 0.00 95 1012.3
20240304071547 68 59 3.0 5.0 0.00 0.00 0.00 95 1012.5
20240304071045 68 16 5.0 7.0 0.00 0.00 0.00 95 1012.6
20240304070544 68 30 5.0 7.0 0.00 0.00 0.00 95 1012.5
20240304070042 68 65 3.0 5.0 0.00 0.00 0.00 95 1012.5
20240304065542 68 35 3.0 6.0 0.00 0.00 0.00 95 1012.6
20240304065042 68 52 4.0 5.0 0.00 0.00 0.00 95 1012.6
20240304064541 68 22 3.0 5.0 0.00 0.00 0.00 95 1012.7
20240304064040 68 41 3.0 3.0 0.00 0.00 0.00 95 1012.9
20240304063539 68 60 1.0 1.0 0.00 0.00 0.00 95 1012.8
20240304063039 68 93 4.0 6.0 0.00 0.00 0.00 94 1012.8
20240304062538 68 91 2.0 3.0 0.00 0.00 0.00 95 1012.6
20240304062036 68 105 3.0 7.0 0.00 0.00 0.00 95 1012.9
20240304061535 68 72 2.0 3.0 0.00 0.00 0.00 95 1013.0
20240304061033 68 67 3.0 5.0 0.00 0.00 0.00 95 1012.9
20240304060533 68 33 3.0 6.0 0.00 0.00 0.00 95 1012.8
20240304060032 68 53 5.0 8.0 0.00 0.00 0.00 95 1013.0
20240304055531 68 60 4.0 7.0 0.00 0.00 0.00 95 1012.8
20240304055030 68 43 8.0 9.0 0.00 0.00 0.00 95 1012.9
20240304054528 68 46 6.0 9.0 0.00 0.00 0.00 94 1012.9
20240304054027 68 62 5.0 7.0 0.00 0.00 0.00 94 1013.0
20240304053527 68 58 4.0 7.0 0.00 0.00 0.00 94 1012.7
20240304053025 68 34 5.0 6.0 0.00 0.00 0.00 94 1012.9
20240304052524 68 52 4.0 9.0 0.00 0.00 0.00 94 1013.0
20240304052024 68 34 8.0 10.0 0.00 0.00 0.00 94 1013.0
20240304051524 69 33 5.0 6.0 0.00 0.00 0.00 94 1013.2
20240304051022 69 16 3.0 5.0 0.00 0.00 0.00 94 1013.2
20240304050522 69 56 4.0 6.0 0.00 0.00 0.00 93 1013.4
20240304050021 69 49 3.0 5.0 0.00 0.00 0.00 93 1013.1
20240304045519 69 56 5.0 5.0 0.00 0.00 0.00 93 1013.1
20240304045018 69 54 5.0 7.0 0.00 0.00 0.00 93 1013.2
20240304044517 69 55 6.0 8.0 0.00 0.00 0.00 92 1013.2
20240304044017 69 67 5.0 7.0 0.00 0.00 0.00 92 1013.3
20240304043515 69 15 5.0 7.0 0.00 0.00 0.00 92 1013.4
20240304043015 69 42 4.0 7.0 0.00 0.00 0.00 92 1013.3
20240304042514 69 17 8.0 10.0 0.00 0.00 0.00 92 1013.1
20240304042012 69 40 3.0 6.0 0.00 0.00 0.00 91 1013.2
20240304041510 69 43 5.0 8.0 0.00 0.00 0.00 91 1013.1
20240304041008 70 130 3.0 5.0 0.00 0.00 0.00 91 1013.3
20240304040507 70 50 6.0 9.0 0.00 0.00 0.00 90 1013.3
20240304040005 70 43 5.0 8.0 0.00 0.00 0.00 90 1013.2
20240304035503 70 78 3.0 3.0 0.00 0.00 0.00 90 1013.1
20240304035001 70 29 5.0 8.0 0.00 0.00 0.00 90 1013.2
20240304034459 70 65 5.0 6.0 0.00 0.00 0.00 89 1013.2
20240304033959 70 69 3.0 3.0 0.00 0.00 0.00 89 1013.3
20240304033459 70 53 3.0 3.0 0.00 0.00 0.00 89 1013.2
20240304032959 70 40 4.0 6.0 0.00 0.00 0.00 89 1013.1
20240304032458 70 49 1.0 1.0 0.00 0.00 0.00 89 1013.1
20240304031956 70 15 4.0 6.0 0.00 0.00 0.00 89 1013.2
20240304031456 70 42 3.0 5.0 0.00 0.00 0.00 88 1013.1
20240304030956 71 48 5.0 6.0 0.00 0.00 0.00 88 1012.9
20240304030455 71 115 0.0 1.0 0.00 0.00 0.00 88 1013.1
20240304025955 71 69 2.0 3.0 0.00 0.00 0.00 88 1012.8
20240304025455 71 78 2.0 2.0 0.00 0.00 0.00 88 1012.8
20240304024954 71 64 2.0 2.0 0.00 0.00 0.00 88 1012.6
20240304024453 71 89 5.0 6.0 0.00 0.00 0.00 88 1012.6
20240304023952 71 59 1.0 2.0 0.00 0.00 0.00 88 1012.8
20240304023450 71 51 1.0 1.0 0.00 0.00 0.00 88 1012.5
20240304022950 71 23 3.0 6.0 0.00 0.00 0.00 88 1012.7
20240304022448 71 127 3.0 6.0 0.00 0.00 0.00 88 1012.7
20240304021948 71 351 2.0 3.0 0.00 0.00 0.00 87 1012.4
20240304021448 71 60 3.0 5.0 0.00 0.00 0.00 87 1012.6
20240304020947 71 10 1.0 2.0 0.00 0.00 0.00 87 1012.5
20240304020445 71 64 3.0 3.0 0.00 0.00 0.00 86 1012.4
20240304015944 71 88 1.0 1.0 0.00 0.00 0.00 86 1012.4
20240304015443 71 68 2.0 3.0 0.00 0.00 0.00 86 1012.2
20240304014942 71 73 3.0 5.0 0.00 0.00 0.00 86 1012.2
20240304014441 71 77 4.0 6.0 0.00 0.00 0.00 85 1012.0
20240304013941 71 49 1.0 3.0 0.00 0.00 0.00 85 1012.3
20240304013440 71 147 3.0 5.0 0.00 0.00 0.00 84 1012.2
20240304012932 71 37 3.0 6.0 0.00 0.00 0.00 83 1012.0
20240304012432 72 54 1.0 2.0 0.00 0.00 0.00 82 1012.0
20240304011931 72 124 1.0 2.0 0.00 0.00 0.00 81 1012.1
20240304011431 72 36 3.0 5.0 0.00 0.00 0.00 81 1011.9
20240304010929 72 35 3.0 3.0 0.00 0.00 0.00 80 1011.7
20240304010428 72 20 4.0 5.0 0.00 0.00 0.00 80 1011.9
20240304005926 72 97 2.0 2.0 0.00 0.00 0.00 79 1011.5
20240304005425 72 44 3.0 5.0 0.00 0.00 0.00 79 1011.6
20240304004925 72 357 4.0 5.0 0.00 0.00 0.00 78 1011.3
20240304004423 72 50 5.0 7.0 0.00 0.00 0.00 78 1011.7
20240304003923 72 55 3.0 5.0 0.00 0.00 0.00 77 1011.5
20240304003423 72 31 3.0 6.0 0.00 0.00 0.00 77 1011.6
20240304002922 72 61 1.0 2.0 0.00 0.00 0.00 77 1011.4
20240304002421 73 71 5.0 6.0 0.00 0.00 0.00 76 1011.2
20240304001920 73 57 3.0 3.0 0.00 0.00 0.00 76 1011.3
20240304001420 73 52 1.0 2.0 0.00 0.00 0.00 76 1011.3
20240304000919 73 83 1.0 2.0 0.00 0.00 0.00 75 1011.4
20240304000418 73 74 2.0 3.0 0.00 0.00 0.00 76 1011.4
20240303235917 73 52 5.0 7.0 0.00 0.00 0.00 76 1011.5
20240303235416 74 23 7.0 9.0 0.00 0.00 0.00 75 1011.1
20240303234914 73 61 9.0 11.0 0.00 0.00 0.00 75 1011.1
20240303234412 74 43 7.0 10.0 0.00 0.00 0.00 75 1011.1
20240303233912 74 25 8.0 10.0 0.00 0.00 0.00 74 1011.1
20240303233411 74 66 4.0 6.0 0.00 0.00 0.00 74 1010.9
20240303232911 75 49 5.0 9.0 0.00 0.00 0.00 73 1011.2
20240303232411 74 354 4.0 7.0 0.00 0.00 0.00 73 1011.3
20240303231910 74 18 6.0 8.0 0.00 0.00 0.00 73 1011.1
20240303231408 75 49 3.0 3.0 0.00 0.00 0.00 71 1011.2
20240303230907 76 55 9.0 10.0 0.00 0.00 0.00 69 1011.2
20240303230407 75 65 3.0 3.0 0.00 0.00 0.00 69 1011.3
20240303225905 75 78 5.0 6.0 0.00 0.00 0.00 69 1011.0
20240303225403 75 27 3.0 6.0 0.00 0.00 0.00 69 1011.1
20240303224901 76 79 5.0 8.0 0.00 0.00 0.00 67 1011.1
20240303224400 76 17 5.0 7.0 0.00 0.00 0.00 66 1011.2
20240303223859 76 92 3.0 6.0 0.00 0.00 0.00 67 1011.2
20240303223359 75 51 5.0 7.0 0.00 0.00 0.00 68 1011.2
20240303222857 76 45 7.0 8.0 0.00 0.00 0.00 67 1011.0
20240303222356 75 77 6.0 11.0 0.00 0.00 0.00 68 1011.1
20240303221854 76 32 5.0 7.0 0.00 0.00 0.00 67 1011.2
20240303221353 76 58 5.0 7.0 0.00 0.00 0.00 67 1011.0
20240303220852 77 15 10.0 11.0 0.00 0.00 0.00 66 1011.2
20240303220350 77 115 5.0 7.0 0.00 0.00 0.00 63 1011.4
20240303215848 77 66 5.0 8.0 0.00 0.00 0.00 64 1011.4
20240303215348 77 157 5.0 7.0 0.00 0.00 0.00 65 1011.5
20240303214846 76 35 3.0 3.0 0.00 0.00 0.00 65 1011.2
20240303214345 76 64 6.0 8.0 0.00 0.00 0.00 67 1011.3
20240303213844 76 47 2.0 5.0 0.00 0.00 0.00 67 1011.5
20240303213343 79 131 6.0 8.0 0.00 0.00 0.00 61 1011.6
20240303212842 78 78 5.0 7.0 0.00 0.00 0.00 62 1011.6
20240303212341 77 79 4.0 6.0 0.00 0.00 0.00 64 1011.7
20240303211839 76 48 4.0 8.0 0.00 0.00 0.00 67 1011.7
20240303211338 76 63 7.0 9.0 0.00 0.00 0.00 65 1011.6
20240303210837 77 42 6.0 8.0 0.00 0.00 0.00 66 1011.7
20240303210336 76 58 9.0 10.0 0.00 0.00 0.00 68 1011.4
20240303205836 75 25 6.0 8.0 0.00 0.00 0.00 68 1011.6
20240303205334 75 31 4.0 7.0 0.00 0.00 0.00 69 1011.5
20240303204833 76 38 8.0 13.0 0.00 0.00 0.00 68 1011.5
20240303204332 77 50 6.0 8.0 0.00 0.00 0.00 67 1011.7
20240303203831 76 150 5.0 10.0 0.00 0.00 0.00 66 1011.7
20240303203330 75 95 7.0 15.0 0.00 0.00 0.00 67 1012.0
20240303202828 75 40 4.0 7.0 0.00 0.00 0.00 67 1011.5
20240303202329 75 59 9.0 13.0 0.00 0.00 0.00 68 1011.9
20240303201828 74 22 5.0 9.0 0.00 0.00 0.00 69 1012.1
20240303201326 74 52 6.0 10.0 0.00 0.00 0.00 70 1012.4
20240303200825 74 62 7.0 9.0 0.00 0.00 0.00 70 1012.3
20240303200323 75 42 5.0 8.0 0.00 0.00 0.00 68 1012.5
20240303195822 75 68 4.0 6.0 0.00 0.00 0.00 71 1012.5
20240303195320 75 76 3.0 8.0 0.00 0.00 0.00 69 1012.3
20240303194820 75 33 8.0 13.0 0.00 0.00 0.00 70 1012.6
20240303194318 75 77 5.0 7.0 0.00 0.00 0.00 68 1012.9
20240303193816 75 359 7.0 10.0 0.00 0.00 0.00 70 1012.8
20240303193316 75 74 2.0 3.0 0.00 0.00 0.00 70 1013.0
20240303192815 75 116 2.0 3.0 0.00 0.00 0.00 70 1012.9
20240303192314 74 147 0.0 1.0 0.00 0.00 0.00 71 1012.9
20240303191754 73 101 6.0 7.0 0.00 0.00 0.00 73 1013.2
20240303191253 73 38 2.0 2.0 0.00 0.00 0.00 73 1013.3
20240303190752 73 120 3.0 5.0 0.00 0.00 0.00 72 1013.2
20240303190251 74 108 5.0 7.0 0.00 0.00 0.00 73 1013.1
20240303185751 73 79 3.0 5.0 0.00 0.00 0.00 75 1013.5
20240303185249 71 70 5.0 8.0 0.00 0.00 0.00 77 1013.5
20240303184747 71 109 5.0 7.0 0.00 0.00 0.00 78 1013.7
20240303184246 71 37 5.0 7.0 0.00 0.00 0.00 77 1013.7
20240303183745 71 63 4.0 7.0 0.00 0.00 0.00 78 1013.6
20240303183243 71 52 2.0 3.0 0.00 0.00 0.00 79 1013.6
20240303182742 71 110 4.0 7.0 0.00 0.00 0.00 79 1013.7
20240303182241 71 22 5.0 8.0 0.00 0.00 0.00 79 1013.9
20240303181739 71 68 7.0 9.0 0.00 0.00 0.00 78 1014.0
20240303181237 70 113 3.0 6.0 0.00 0.00 0.00 79 1014.1
20240303180735 70 45 4.0 6.0 0.00 0.00 0.00 80 1014.1
20240303180233 70 38 5.0 7.0 0.00 0.00 0.00 79 1014.1
20240303175731 70 128 3.0 5.0 0.00 0.00 0.00 79 1014.1
20240303175227 70 94 4.0 6.0 0.00 0.00 0.00 80 1014.2
20240303174719 70 61 3.0 5.0 0.00 0.00 0.00 81 1014.3
20240303174217 69 48 7.0 7.0 0.00 0.00 0.00 81 1014.5
20240303173716 69 32 4.0 7.0 0.00 0.00 0.00 82 1014.5
20240303173215 69 76 2.0 3.0 0.00 0.00 0.00 83 1014.5
20240303172713 69 50 4.0 8.0 0.00 0.00 0.00 82 1015.1
20240303172212 68 71 2.0 5.0 0.00 0.00 0.00 84 1015.0
20240303171711 68 103 5.0 8.0 0.00 0.00 0.00 83 1015.0
20240303171210 68 80 4.0 9.0 0.00 0.00 0.00 84 1014.7
20240303170709 68 60 5.0 7.0 0.00 0.00 0.00 84 1015.1
20240303170209 68 40 3.0 5.0 0.00 0.00 0.00 85 1015.1
20240303165708 68 65 6.0 8.0 0.00 0.00 0.00 85 1015.1
20240303165207 68 38 4.0 6.0 0.00 0.00 0.00 85 1015.2
20240303164707 68 148 1.0 2.0 0.00 0.00 0.00 86 1015.2
20240303164205 68 73 4.0 5.0 0.00 0.00 0.00 86 1015.1
20240303163705 67 72 4.0 5.0 0.00 0.00 0.00 86 1015.0
20240303163204 67 41 5.0 7.0 0.00 0.00 0.00 86 1015.1
20240303162702 68 52 6.0 9.0 0.00 0.00 0.00 85 1015.1
20240303162202 67 64 5.0 6.0 0.00 0.00 0.00 86 1015.3
20240303161700 67 64 2.0 2.0 0.00 0.00 0.00 86 1015.2
20240303161200 67 65 3.0 5.0 0.00 0.00 0.00 87 1015.1
20240303160700 66 42 7.0 8.0 0.00 0.00 0.00 87 1015.2
20240303160159 66 53 4.0 6.0 0.00 0.00 0.00 88 1015.0
20240303155658 66 44 3.0 5.0 0.00 0.00 0.00 88 1015.4
20240303155156 66 14 6.0 9.0 0.00 0.00 0.00 88 1015.0
20240303154655 66 96 3.0 3.0 0.00 0.00 0.00 87 1015.0
20240303154154 66 36 4.0 6.0 0.00 0.00 0.00 87 1014.7
20240303153654 66 26 6.0 8.0 0.00 0.00 0.00 87 1014.7
20240303153153 66 32 3.0 3.0 0.00 0.00 0.00 88 1015.0
20240303152651 65 31 5.0 6.0 0.00 0.00 0.00 88 1015.0
20240303152150 65 50 3.0 5.0 0.00 0.00 0.00 88 1015.1
20240303151650 65 92 2.0 2.0 0.00 0.00 0.00 88 1015.1
20240303151149 65 80 1.0 2.0 0.00 0.00 0.00 88 1015.0
20240303150649 65 337 3.0 3.0 0.00 0.00 0.00 89 1015.2
20240303150148 65 337 3.0 3.0 0.00 0.00 0.00 89 1015.2
20240303145646 65 59 3.0 3.0 0.00 0.00 0.00 89 1014.8
20240303145145 65 2 5.0 6.0 0.00 0.00 0.00 90 1015.0
20240303144644 64 11 4.0 6.0 0.00 0.00 0.00 90 1015.0
20240303144141 64 37 3.0 6.0 0.00 0.00 0.00 91 1014.7
20240303143640 64 62 2.0 2.0 0.00 0.00 0.00 91 1014.8
20240303143139 64 38 3.0 5.0 0.00 0.00 0.00 92 1015.0
20240303142639 64 43 3.0 3.0 0.00 0.00 0.00 92 1015.1
20240303142138 64 75 3.0 3.0 0.00 0.00 0.00 92 1015.0
20240303141637 64 45 3.0 5.0 0.00 0.00 0.00 92 1015.0
20240303141136 64 37 5.0 6.0 0.00 0.00 0.00 93 1014.7
20240303140636 64 64 3.0 3.0 0.00 0.00 0.00 93 1014.5
20240303140134 64 73 1.0 2.0 0.00 0.00 0.00 93 1015.0
20240303135633 64 103 2.0 3.0 0.00 0.00 0.00 93 1014.7
20240303135132 63 70 2.0 2.0 0.00 0.00 0.00 93 1014.6
20240303134631 63 73 2.0 2.0 0.00 0.00 0.00 94 1014.7
20240303134131 63 118 1.0 1.0 0.00 0.00 0.00 94 1014.7
20240303133629 63 41 4.0 5.0 0.00 0.00 0.00 94 1014.7
20240303133127 63 58 2.0 3.0 0.00 0.00 0.00 94 1014.5
20240303132627 63 83 2.0 3.0 0.00 0.00 0.00 94 1014.8
20240303132125 63 33 3.0 5.0 0.00 0.00 0.00 94 1014.7
20240303131624 63 43 2.0 3.0 0.00 0.00 0.00 94 1014.7
20240303131124 63 67 3.0 3.0 0.00 0.00 0.00 94 1014.5
20240303130623 63 33 3.0 3.0 0.00 0.00 0.00 94 1014.5
20240303130123 63 60 4.0 5.0 0.00 0.00 0.00 94 1014.6
20240303125622 63 93 2.0 2.0 0.00 0.00 0.00 94 1014.8
20240303125121 63 47 3.0 3.0 0.00 0.00 0.00 94 1014.7
20240303124620 63 120 1.0 2.0 0.00 0.00 0.00 94 1014.6
20240303124118 63 131 0.0 1.0 0.00 0.00 0.00 94 1014.7
20240303123617 63 62 1.0 2.0 0.00 0.00 0.00 94 1014.5
20240303123116 63 37 2.0 3.0 0.00 0.00 0.00 94 1014.4
20240303122615 63 70 2.0 3.0 0.00 0.00 0.00 94 1014.6